TimeEST,TemperatureF,Dew PointF,Humidity,Sea Level PressureIn,VisibilityMPH,Wind Direction,Wind SpeedMPH,Gust SpeedMPH,PrecipitationIn,Events,Conditions,WindDirDegrees,DateUTC
12:00 AM,14.0,10.4,86,30.29,10.0,SW,3.5,-,N/A,Snow,Light Snow,220,2012-11-27 05:00:00
1:00 AM,15,11,77,30.26,10,South,1.2,,,Snow,Light Snow,170,2012-11-27 06:00:00
1:52 AM,14.0,12.2,93,30.25,2.0,Calm,Calm,-,N/A,Snow,Light Snow Showers,0,2012-11-27 06:52:00
2:00 AM,14.0,12.2,93,30.25,2.5,Calm,Calm,-,N/A,Snow,Light Snow Showers,0,2012-11-27 07:00:00
2:19 AM,14.0,12.2,93,30.25,7.0,Calm,Calm,-,N/A,Snow,Light Snow Showers,0,2012-11-27 07:19:00
3:00 AM,14.0,12.2,93,30.22,2.0,Calm,Calm,-,N/A,Snow,Light Snow Showers,0,2012-11-27 08:00:00
4:00 AM,14.0,12.2,93,30.20,5.0,Calm,Calm,-,N/A,Snow,Light Snow Showers,0,2012-11-27 09:00:00
5:00 AM,14.0,12.2,93,30.17,5.0,Calm,Calm,-,N/A,Snow,Light Snow,0,2012-11-27 10:00:00
6:00 AM,14.0,12.2,93,30.15,12.0,Calm,Calm,-,N/A,Snow,Light Snow,0,2012-11-27 11:00:00
6:49 AM,14.0,12.2,93,30.13,15.0,Calm,Calm,-,N/A,,Partly Cloudy,0,2012-11-27 11:49:00
7:00 AM,14,12,90,30.13,10,WNW,1.2,,,,Overcast,290,2012-11-27 12:00:00
7:00 AM,14.0,12.2,93,30.12,15.0,Calm,Calm,-,N/A,,Overcast,0,2012-11-27 12:00:00
8:00 AM,14.0,14.0,100,30.12,20.0,Calm,Calm,-,N/A,,Overcast,0,2012-11-27 13:00:00
8:29 AM,15.8,14.0,93,30.11,20.0,Calm,Calm,-,N/A,Snow,Light Snow,0,2012-11-27 13:29:00
9:00 AM,15.8,14.0,93,30.10,4.0,Calm,Calm,-,N/A,Snow,Light Snow,0,2012-11-27 14:00:00
10:00 AM,15.8,14.0,93,30.09,10.0,Calm,Calm,-,N/A,Snow,Light Snow,0,2012-11-27 15:00:00
10:36 AM,17.6,15.8,93,30.09,15.0,Calm,Calm,-,N/A,,Overcast,0,2012-11-27 15:36:00
11:00 AM,17.6,15.8,93,30.08,15.0,Calm,Calm,-,N/A,,Overcast,0,2012-11-27 16:00:00
12:00 PM,21.2,17.6,86,30.06,20.0,WNW,3.5,-,N/A,,Overcast,300,2012-11-27 17:00:00
1:00 PM,24,19,73,30.04,10,WNW,4.6,,,,,300,2012-11-27 18:00:00
1:00 PM,23.0,19.4,86,30.04,20.0,West,3.5,-,N/A,,Overcast,280,2012-11-27 18:00:00
2:00 PM,26.6,19.4,74,30.03,20.0,WNW,12.7,-,N/A,,Overcast,290,2012-11-27 19:00:00
3:00 PM,26.6,19.4,74,30.02,20.0,West,9.2,-,N/A,,Mostly Cloudy,260,2012-11-27 20:00:00
4:00 PM,26.6,17.6,69,30.02,20.0,West,8.1,-,N/A,,Mostly Cloudy,270,2012-11-27 21:00:00
5:00 PM,24.8,17.6,74,30.03,20.0,WNW,6.9,-,N/A,,Scattered Clouds,290,2012-11-27 22:00:00
7:00 PM,21.2,15.8,80,30.09,15.0,NW,5.8,-,N/A,,Mostly Cloudy,310,2012-11-28 00:00:00
8:00 PM,19.4,12.2,74,30.11,15.0,NW,8.1,-,N/A,,Mostly Cloudy,320,2012-11-28 01:00:00
8:14 PM,19.4,12.2,74,30.11,15.0,WNW,6.9,-,N/A,,Mostly Cloudy,300,2012-11-28 01:14:00
9:00 PM,19.4,12.2,74,30.12,15.0,WNW,9.2,-,N/A,Snow,Light Snow,290,2012-11-28 02:00:00
9:42 PM,19.4,10.4,68,30.12,15.0,WNW,10.4,-,N/A,,Mostly Cloudy,290,2012-11-28 02:42:00
10:00 PM,19.4,10.4,68,30.13,15.0,WNW,6.9,-,N/A,,Mostly Cloudy,300,2012-11-28 03:00:00
10:35 PM,19.4,12.2,74,30.14,10.0,NW,10.4,-,N/A,,Overcast,320,2012-11-28 03:35:00
11:00 PM,17.6,10.4,73,30.15,15.0,NNW,12.7,20.7,N/A,Snow,Light Snow,330,2012-11-28 04:00:00
11:32 PM,15.8,6.8,68,30.17,15.0,NW,11.5,20.7,N/A,,Mostly Cloudy,320,2012-11-28 04:32:00